Regional Weather Roundup
Issued by NWS

Home | Current Version | Previous Version | Graphics & Text | Print | Product List | Glossary On
Versions: 1 2 3 4 5 6 7 8 9 10 11 12 13 14 15 16 17 18 19 20 21 22 23 24 25 26 27
000
ASUS45 KBOU 150206
RWRCO

WEATHER ROUNDUP FOR COLORADO
NATIONAL WEATHER SERVICE DENVER/BOULDER CO
800 PM MDT MON APR 14 2014

NOTE: "FAIR" INDICATES FEW OR NO CLOUDS BELOW 12000 FEET WITH NO
SIGNIFICANT WEATHER AND/OR OBSTRUCTIONS TO VISIBILITY.

COZ001>005-013-030-031-150300-
...NORTHWEST COLORADO...

CITY           SKY/WX    TMP DP  RH WIND       PRES   REMARKS
CRAIG          CLEAR     31  17  56 S5        30.22F WCI  26
HAYDEN         CLEAR     32  16  51 CALM      30.24S
MEEKER         CLEAR     34  22  61 NE3       30.23S
MOUNT WERNER   CLEAR     18   9  68 W14       30.20S WCI   4
STEAMBOAT SPGS CLEAR     30  15  54 E3        30.23S
WALDEN         CLEAR     23  12  63 S13       30.18S WCI  11
$$

COZ006>008-011-150300-
...WEST CENTRAL VALLEYS...

CITY           SKY/WX    TMP DP  RH WIND       PRES   REMARKS
GRAND JUNCTION CLEAR     43  17  35 NW3       30.23F
MONTROSE       CLEAR     41  17  38 E5        30.27S
EAGLE          CLEAR     37  12  35 SW12      30.24R
RIFLE          CLEAR     41  17  38 W6        30.23S
DELTA          CLEAR     43  21  41 NE3       30.26S
NUCLA            N/A     43  16  33 NW5       30.26S
$$

COZ017>023-064>068-150300-
...SOUTHWEST COLORADO...

CITY           SKY/WX    TMP DP  RH WIND       PRES   REMARKS
DURANGO        CLEAR     45   0  15 SW15      30.12R
CORTEZ         CLEAR     45  10  24 NW8       30.20S
PAGOSA SPRINGS CLEAR     44   2  17 SW6       30.17R
TELLURIDE      PTCLDY    28  14  54 W3        30.25R
WOLF CREEK PAS CLEAR     21   3  45 SW17      30.24R WCI   7
$$

COZ009-010-012-014-032>034-037-058>063-150300-
...CENTRAL COLORADO...

CITY           SKY/WX    TMP DP  RH WIND       PRES   REMARKS
ASPEN          CLEAR     32   8  36 W5        30.21S WCI  27
BUENA VISTA    CLEAR     34   7  31 NW9G16    30.14R WCI  27
COPPER MTN     CLEAR     16   5  62 W16       30.18S WCI   0
BERTHOUD PASS  LGT SNOW   7  -4  61 NW29G37   30.11R VSB 3/4 WCI -16
COTTONWOOD PAS CLEAR     32  -4  21 NW15G31   30.13S WCI  22
GUNNISON       CLEAR     32  10  40 SW13G18   30.23R WCI  22
KREMMLING      CLEAR     30  16  55 NW9       30.22R WCI  22
LEADVILLE      CLEAR     20   2  45 NW13      30.16S WCI   7
MONARCH PASS   CLEAR     16  10  79 W22G36    30.28R WCI  -2
SALIDA         CLEAR     39  13  35 W10G17    30.21R
SUNLIGHT       CLEAR     19  16  86 CALM      30.23S
WILKERSON PASS CLEAR     18   5  57 NW9G17    30.17R WCI   6
$$

COZ069>075-150300-
...SAN LUIS VALLEY/SANGRE DE CRISTO MOUNTAINS...

CITY           SKY/WX    TMP DP  RH WIND       PRES   REMARKS
ALAMOSA        CLEAR     40  21  46 CALM      30.13R
LA VETA PASS   CLEAR     27  12  54 W6        30.16R WCI  20
SAGUACHE       CLEAR     36   5  27 N13       30.17R
$$

COZ035-036-038>040-150300-
...NORTHERN COLORADO FRONT RANGE...

CITY           SKY/WX    TMP DP  RH WIND       PRES   REMARKS
DENVER INTL AP PTCLDY    32  22  66 SE7       30.14S WCI  26
DMNS CITY PARK   N/A     37  18  47 SE8       30.14R
AURORA         PTCLDY    32  21  64 S10       30.14F WCI  24
FRONT RANGE AP NOT AVBL
ERIE MUNI ARPT CLEAR     37  21  51 SE5       30.14S
BOULDER MUN AP CLEAR     37  19  48 CALM      30.14R
CENTENNIAL     PTCLDY    31  20  63 SE6       30.14S WCI  25
BROOMFIELD     PTCLDY    37  19  48 SE8       30.14S
FORT COLLINS   CLEAR     36  21  55 S7        30.15S
LONGMONT       CLEAR     39  21  49 SE3       30.16S
$$

COZ041-046-047-076>085-087-088-150300-
...PIKES PEAK/PALMER DIVIDE AND SOUTHERN FOOTHILLS...

CITY           SKY/WX    TMP DP  RH WIND       PRES   REMARKS
COLO. SPRINGS  PTCLDY    30  22  72 S9        30.17R WCI  22
A. F. ACADEMY  CLEAR     31  21  68 S8        30.15R WCI  23
ELLICOTT       NOT AVBL
FALCON         CLEAR     28  21  72 S7        30.16S WCI  21
FORT CARSON    CLEAR     30  24  76 S8        30.16S WCI  23
LIMON          CLEAR     29  20  69 CALM      30.17S
MONUMENT HILL  CLEAR     27  19  74 E3        30.13S
TRINIDAD       CLEAR     31  21  66 SE5       30.19R WCI  26
$$

COZ042>045-048>051-090-091-150300-
...NORTHEAST COLORADO...

CITY           SKY/WX    TMP DP  RH WIND       PRES   REMARKS
GREELEY ARPT   CLEAR     36  19  51 SE7       30.15S
AKRON          CLEAR     31  16  54 NW5       30.16S WCI  26
BURLINGTON     CLEAR     29  19  66 W6        30.19S WCI  23
WRAY           CLEAR     33  24  71 NW6       30.17S WCI  27
STERLING       CLEAR     36  23  60 N5        30.14F
HOLYOKE        CLEAR     37  25  60 W7        30.16R
FORT MORGAN    CLEAR     31  20  64 S5        30.17R WCI  26
$$

COZ086-089-092>099-150300-
...SOUTHEAST COLORADO...

CITY           SKY/WX    TMP DP  RH WIND       PRES   REMARKS
PUEBLO         CLEAR     38  24  57 S5        30.19S
LA JUNTA       CLEAR     38  17  42 NE6       30.20R
LAMAR          CLEAR     34  12  40 NE8       30.20S WCI  27
SPRINGFIELD      N/A     30  17  58 NW3       30.21R
$$



USA.gov is the U.S. government's official web portal to all federal, state and local government web resources and services.